Hourly Weather Barnala

Today, 6 May, Thursday

Time Temperature Precipitation Wind Pressure Humidity
00:00 +32°C° 0 mm 2 mps 734 mmHg 26%
01:00 +31°C° 0 mm 2 mps 733 mmHg 27%
02:00 +30°C° 0 mm 2 mps 733 mmHg 29%
03:00 +30°C° 0 mm 2 mps 733 mmHg 30%
04:00 +29°C° 0 mm 2 mps 734 mmHg 31%
05:00 +29°C° 0 mm 2 mps 734 mmHg 35%
06:00 +31°C° 0 mm 2 mps 735 mmHg 32%
07:00 +32°C° 0 mm 2 mps 735 mmHg 30%
08:00 +35°C° 0 mm 3 mps 736 mmHg 27%
09:00 +37°C° 0 mm 2 mps 736 mmHg 23%
10:00 +39°C° 0 mm 2 mps 736 mmHg 19%
11:00 +41°C° 0 mm 2 mps 736 mmHg 16%
12:00 +41°C° 0 mm 1 mps 736 mmHg 15%
13:00 +42°C° 0 mm 1 mps 735 mmHg 13%
14:00 +43°C° 0 mm 1 mps 735 mmHg 12%
15:00 +42°C° 0 mm 2 mps 734 mmHg 13%
16:00 +43°C° 0 mm 3 mps 733 mmHg 13%
17:00 +42°C° 0 mm 4 mps 733 mmHg 13%
18:00 +40°C° 0 mm 5 mps 734 mmHg 17%
19:00 +37°C° 0 mm 5 mps 734 mmHg 21%
20:00 +35°C° 0 mm 6 mps 735 mmHg 25%
21:00 +35°C° 0 mm 5 mps 735 mmHg 26%
22:00 +34°C° 0 mm 4 mps 735 mmHg 28%
23:00 +33°C° 0 mm 3 mps 735 mmHg 29%

Tomorrow, 7 May, Friday

Time Temperature Precipitation Wind Pressure Humidity
00:00 +32°C° 0 mm 2 mps 735 mmHg 29%
01:00 +32°C° 0 mm 1 mps 735 mmHg 30%
02:00 +31°C° 0 mm 1 mps 735 mmHg 30%
03:00 +31°C° 0 mm 1 mps 735 mmHg 32%
04:00 +30°C° 0 mm 1 mps 735 mmHg 33%
05:00 +30°C° 0 mm 1 mps 735 mmHg 35%
06:00 +31°C° 0.2 mm 1 mps 736 mmHg 33%
07:00 +32°C° 0.2 mm 1 mps 736 mmHg 32%
08:00 +33°C° 0.2 mm 1 mps 737 mmHg 30%
09:00 +34°C° 0 mm 1 mps 737 mmHg 27%
10:00 +36°C° 0 mm 2 mps 737 mmHg 24%
11:00 +38°C° 0 mm 3 mps 737 mmHg 21%
12:00 +37°C° 0 mm 3 mps 737 mmHg 22%
13:00 +37°C° 0 mm 3 mps 736 mmHg 23%
14:00 +36°C° 0 mm 3 mps 736 mmHg 23%
15:00 +36°C° 0.1 mm 3 mps 736 mmHg 23%
16:00 +36°C° 0.1 mm 2 mps 735 mmHg 23%
17:00 +36°C° 0.1 mm 2 mps 735 mmHg 23%
18:00 +35°C° 0 mm 2 mps 735 mmHg 25%
19:00 +34°C° 0 mm 2 mps 735 mmHg 27%
20:00 +32°C° 0 mm 2 mps 735 mmHg 29%
21:00 +31°C° 0 mm 2 mps 735 mmHg 32%
22:00 +30°C° 0 mm 3 mps 735 mmHg 35%
23:00 +29°C° 0 mm 3 mps 735 mmHg 39%

Day after tomorrow, 8 May, Saturday

Time Temperature Precipitation Wind Pressure Humidity
00:00 +29°C° 0 mm 3 mps 735 mmHg 41%
01:00 +28°C° 0 mm 2 mps 735 mmHg 44%
02:00 +27°C° 0 mm 2 mps 735 mmHg 46%
03:00 +27°C° 0 mm 2 mps 735 mmHg 48%
04:00 +27°C° 0 mm 2 mps 735 mmHg 50%
05:00 +26°C° 0 mm 2 mps 735 mmHg 52%
06:00 +28°C° 0 mm 2 mps 735 mmHg 46%
07:00 +30°C° 0 mm 2 mps 736 mmHg 40%
08:00 +32°C° 0 mm 2 mps 737 mmHg 34%
09:00 +35°C° 0 mm 2 mps 737 mmHg 29%
10:00 +37°C° 0 mm 2 mps 736 mmHg 25%
11:00 +39°C° 0 mm 2 mps 736 mmHg 20%
12:00 +40°C° 0 mm 2 mps 735 mmHg 18%
13:00 +41°C° 0 mm 2 mps 735 mmHg 16%
14:00 +42°C° 0 mm 2 mps 734 mmHg 14%
15:00 +42°C° 0 mm 2 mps 733 mmHg 14%
16:00 +42°C° 0 mm 2 mps 733 mmHg 14%
17:00 +42°C° 0 mm 1 mps 732 mmHg 13%
18:00 +39°C° 0.1 mm 3 mps 733 mmHg 19%
19:00 +36°C° 0.1 mm 4 mps 734 mmHg 25%
20:00 +34°C° 0.1 mm 6 mps 734 mmHg 31%
21:00 +33°C° 0.2 mm 4 mps 734 mmHg 31%
22:00 +33°C° 0.2 mm 3 mps 734 mmHg 30%
23:00 +32°C° 0.2 mm 2 mps 734 mmHg 30%

9 May, Sunday

Time Temperature Precipitation Wind Pressure Humidity
00:00 +32°C° 0 mm 2 mps 733 mmHg 30%
01:00 +32°C° 0 mm 2 mps 733 mmHg 31%
02:00 +33°C° 0 mm 3 mps 732 mmHg 31%
03:00 +31°C° 0 mm 3 mps 733 mmHg 33%
04:00 +30°C° 0 mm 2 mps 733 mmHg 35%
05:00 +29°C° 0 mm 2 mps 733 mmHg 36%
06:00 +31°C° 0 mm 2 mps 734 mmHg 32%
07:00 +34°C° 0 mm 3 mps 735 mmHg 28%
08:00 +36°C° 0 mm 3 mps 735 mmHg 24%
09:00 +38°C° 0 mm 2 mps 735 mmHg 21%
10:00 +40°C° 0 mm 2 mps 735 mmHg 18%
11:00 +42°C° 0 mm 1 mps 735 mmHg 15%
12:00 +43°C° 0 mm 2 mps 734 mmHg 14%
13:00 +43°C° 0 mm 2 mps 733 mmHg 12%
14:00 +45°C° 0 mm 2 mps 732 mmHg 11%
15:00 +45°C° 0 mm 2 mps 732 mmHg 11%
16:00 +45°C° 0 mm 2 mps 731 mmHg 11%
17:00 +45°C° 0 mm 2 mps 730 mmHg 10%
18:00 +41°C° 0 mm 2 mps 731 mmHg 15%
19:00 +38°C° 0 mm 2 mps 731 mmHg 19%
20:00 +35°C° 0 mm 2 mps 732 mmHg 23%
21:00 +35°C° 0.1 mm 2 mps 732 mmHg 24%
22:00 +34°C° 0.1 mm 1 mps 732 mmHg 24%
23:00 +34°C° 0.1 mm 1 mps 732 mmHg 25%

10 May, Monday

Time Temperature Precipitation Wind Pressure Humidity
00:00 +33°C° 0 mm 1 mps 731 mmHg 26%
01:00 +32°C° 0 mm 1 mps 731 mmHg 26%
02:00 +32°C° 0 mm 1 mps 731 mmHg 27%
03:00 +32°C° 0 mm 1 mps 731 mmHg 28%
04:00 +31°C° 0 mm 1 mps 731 mmHg 29%
05:00 +31°C° 0 mm 1 mps 732 mmHg 29%
06:00 +33°C° 0 mm 1 mps 732 mmHg 26%
07:00 +36°C° 0 mm 2 mps 733 mmHg 23%
08:00 +37°C° 0 mm 2 mps 733 mmHg 20%
09:00 +39°C° 0 mm 2 mps 733 mmHg 18%
10:00 +41°C° 0 mm 2 mps 733 mmHg 16%
11:00 +43°C° 0 mm 2 mps 732 mmHg 14%
12:00 +45°C° 0 mm 3 mps 732 mmHg 12%
13:00 +46°C° 0 mm 3 mps 731 mmHg 11%
14:00 +47°C° 0 mm 3 mps 730 mmHg 10%
15:00 +47°C° 0 mm 4 mps 729 mmHg 10%
16:00 +47°C° 0 mm 4 mps 729 mmHg 10%
17:00 +47°C° 0 mm 4 mps 728 mmHg 10%
18:00 +43°C° 0 mm 4 mps 728 mmHg 13%
19:00 +41°C° 0 mm 5 mps 729 mmHg 17%
20:00 +37°C° 0 mm 5 mps 730 mmHg 20%
21:00 +37°C° 0 mm 4 mps 730 mmHg 21%
22:00 +37°C° 0 mm 3 mps 730 mmHg 21%
23:00 +36°C° 0 mm 2 mps 730 mmHg 21%

11 May, Tuesday

Time Temperature Precipitation Wind Pressure Humidity
00:00 +35°C° 0 mm 2 mps 730 mmHg 24%
01:00 +34°C° 0 mm 2 mps 730 mmHg 26%
02:00 +32°C° 0 mm 2 mps 730 mmHg 29%
03:00 +32°C° 0.1 mm 2 mps 730 mmHg 31%
04:00 +31°C° 0.1 mm 2 mps 730 mmHg 34%
05:00 +30°C° 0.1 mm 1 mps 731 mmHg 37%
06:00 +32°C° 0 mm 1 mps 731 mmHg 33%
07:00 +33°C° 0 mm 1 mps 731 mmHg 29%
08:00 +35°C° 0 mm 1 mps 732 mmHg 25%
09:00 +37°C° 0 mm 1 mps 732 mmHg 22%
10:00 +40°C° 0 mm 2 mps 731 mmHg 20%
11:00 +42°C° 0 mm 2 mps 731 mmHg 17%
12:00 +43°C° 0 mm 2 mps 731 mmHg 16%
13:00 +45°C° 0 mm 2 mps 730 mmHg 14%
14:00 +46°C° 0 mm 2 mps 729 mmHg 12%
15:00 +45°C° 0 mm 3 mps 728 mmHg 14%
16:00 +43°C° 0 mm 4 mps 728 mmHg 16%
17:00 +42°C° 0 mm 4 mps 727 mmHg 18%
18:00 +40°C° 0.2 mm 5 mps 727 mmHg 22%
19:00 +37°C° 0.2 mm 5 mps 728 mmHg 26%
20:00 +34°C° 0.2 mm 5 mps 729 mmHg 30%
21:00 +34°C° 0 mm 5 mps 729 mmHg 31%
22:00 +34°C° 0 mm 5 mps 729 mmHg 31%
23:00 +34°C° 0 mm 5 mps 729 mmHg 32%
Show more